CAPE
0 0 0 0 0 0 0 0 0 31 80 67 153 183 186 182 130 185 370 501 753 1007 1014 819 677 898 948 925 1014 1058 1045 749 679 657 525 412 379 297 204 160 355 161 15 3 0 0 0 0 0
0 0 0 0 0 0 0 0 112 136 101 7 5 30 87 68 153 442 603 835 944 1100 1065 780 712 982 1055 1070 1188 1139 1037 785 776 682 489 396 259 137 127 116 226 30 0 0 0 0 0 0 0
0 0 0 0 0 0 0 51 113 67 26 0 0 3 65 69 193 562 782 1038 1182 1198 1070 837 834 992 1191 1281 1252 1200 1138 1097 1039 731 480 359 201 41 40 22 73 0 0 0 0 0 0 0 0
0 0 0 0 0 0 0 140 161 55 15 7 4 35 93 305 632 483 1177 1222 1170 1058 925 735 823 1054 1337 1402 1378 1309 1195 1118 1023 811 524 342 161 40 0 0 0 0 0 0 0 0 0 0 0
0 0 0 0 0 0 0 159 149 114 7 17 0 22 177 756 938 1183 1193 1177 1123 1075 1088 1032 956 983 1316 1529 1539 1307 1129 988 955 830 669 358 191 36 0 0 0 0 0 0 0 0 0 0 0
0 0 0 0 0 0 1 88 87 83 78 31 94 148 390 1105 1295 1247 1165 1163 1012 1124 1231 1308 1031 1020 1339 1463 1308 1019 888 887 841 784 602 353 222 49 0 0 0 0 0 1 0 0 0 0 0
0 0 0 0 0 0 77 120 62 73 112 107 71 312 802 1080 1200 1230 1094 1224 1275 1236 1236 1401 1462 1372 1120 1060 982 878 778 823 776 709 588 391 221 88 38 35 46 14 11 124 114 62 83 28 65
0 0 0 0 26 17 0 63 82 52 81 39 263 628 888 682 1397 1271 1218 1277 1190 1420 1324 1521 1470 1323 1252 1193 910 838 743 706 689 594 452 206 146 70 112 39 50 157 175 161 184 250 242 182 103
0 0 0 0 18 3 3 69 0 45 124 21 5 689 885 1241 1434 1139 950 936 1085 1062 1155 1028 870 848 1133 1236 1000 758 686 634 605 506 372 159 153 177 162 101 134 274 200 292 380 363 322 249 64
0 0 0 0 0 1 0 0 80 113 122 23 526 1123 1365 1127 1139 973 951 940 1074 1096 854 837 780 768 875 860 835 734 559 428 420 395 494 415 410 387 292 259 125 131 148 293 213 199 213 133 133
0 0 0 0 0 33 5 0 26 179 172 77 865 863 823 1010 853 735 736 857 884 869 725 696 708 690 981 748 611 485 385 315 327 436 445 562 535 673 619 481 311 258 38 32 2 22 64 87 23
0 0 0 0 0 0 2 2 169 124 48 81 989 1386 1086 928 738 807 788 727 734 830 858 925 893 731 538 405 367 170 177 208 343 488 631 707 705 553 177 108 2 0 0 0 0 0 0 0 0
0 0 0 0 0 0 0 31 166 0 38 358 1058 1289 1501 1495 1199 766 506 443 500 554 683 692 398 317 212 122 56 34 102 213 396 598 622 670 433 189 28 3 0 0 0 0 0 0 0 0 0
0 0 0 0 0 0 0 0 0 0 14 541 1038 1199 1034 831 521 245 127 126 259 365 535 364 163 36 12 8 54 99 73 29 40 61 0 8 37 56 4 0 0 0 0 0 0 0 0 0 0
0 0 0 0 0 0 0 0 0 0 3 263 703 331 253 120 71 155 8 2 40 253 322 267 31 9 13 25 35 2 9 0 0 0 0 0 0 0 0 0 0 0 0 0 0 0 0 0 0
0 0 0 0 0 0 0 0 0 0 17 22 40 41 18 0 0 0 0 0 0 151 341 308 132 87 51 40 1 0 0 0 0 0 0 0 0 0 0 0 0 0 0 0 0 0 0 0 0
0 0 0 0 0 0 0 0 0 0 6 0 0 0 0 0 0 0 0 0 28 441 470 437 401 136 5 1 0 0 0 0 0 0 0 0 0 0 0 0 0 0 0 0 0 0 0 0 0
0 0 0 0 0 0 0 0 0 0 0 0 0 0 0 0 0 0 0 0 167 242 170 63 46 12 2 0 0 0 0 0 0 0 0 0 0 0 0 0 0 0 0 0 0 0 0 0 0
0 0 0 0 0 0 0 0 0 0 0 0 0 0 0 0 0 0 0 0 0 5 1 0 0 0 0 0 0 0 0 0 0 0 0 0 0 0 0 0 0 0 0 0 0 0 0 0 0
0 0 0 0 0 0 0 0 0 0 0 0 0 0 0 0 0 0 0 0 3 5 0 0 0 0 0 0 0 0 0 0 0 0 0 0 0 0 0 0 0 0 0 0 0 0 0 0 0
0 0 0 0 0 0 0 0 0 0 0 0 0 0 0 0 0 0 0 0 0 0 0 0 0 0 0 0 0 0 0 0 0 0 0 0 0 0 0 0 0 0 0 0 0 0 0 0 0
0 0 0 0 0 6 0 2 0 0 0 0 0 0 0 0 0 0 0 0 0 0 0 0 0 0 0 0 0 0 0 0 0 0 0 0 0 0 0 0 0 0 0 0 0 0 0 0 0
0 0 0 0 0 0 0 0 0 0 0 0 0 0 0 0 0 0 0 0 0 0 0 0 0 0 0 0 0 0 0 0 0 0 0 0 0 0 0 0 0 0 0 0 0 0 0 0 0
0 0 0 0 0 0 0 0 0 0 0 0 0 0 0 0 0 0 0 0 0 0 0 0 0 0 0 0 0 0 0 0 0 0 0 0 0 0 0 0 0 0 0 0 0 0 0 0 0
0 0 3 2 0 0 0 0 0 0 0 0 0 0 0 0 0 0 0 0 0 0 0 0 0 0 0 0 0 0 0 0 0 0 0 0 0 0 0 0 0 0 0 0 0 0 0 0 0
0 0 17 0 0 0 0 0 0 0 0 0 0 0 0 0 0 0 0 0 0 0 0 0 0 0 0 0 0 0 0 0 0 0 0 0 0 0 0 0 0 0 0 0 0 0 0 0 0
0 0 0 0 0 0 0 0 0 0 0 0 0 0 0 0 0 0 0 0 0 0 0 0 0 0 0 0 0 0 0 0 0 0 0 0 0 0 0 0 0 0 0 0 0 0 4 4 16
0 0 0 0 0 0 0 0 0 0 0 0 0 0 0 0 0 0 0 0 0 0 0 0 0 0 0 0 0 0 0 0 0 0 0 0 0 0 0 0 0 0 4 0 0 2 12 7 22
0 0 0 0 0 0 0 0 0 0 0 0 0 0 0 0 0 0 0 0 0 0 0 0 0 0 0 0 0 0 0 0 0 0 0 0 0 0 0 4 2 20 7 2 5 5 0 0 15
0 0 0 0 0 0 0 0 0 0 0 0 0 0 0 0 0 0 0 0 0 0 0 0 0 0 0 0 0 0 0 0 0 0 0 0 0 0 0 0 2 13 10 12 0 0 0 0 0
CIN
0 0 0 0 0 0 0 0 0 -92 -73 -57 -33 -22 -7 -21 -20 -25 -27 -37 -64 -1 0 -1 -26 -11 -8 -7 -8 -3 -7 -21 -27 -29 -37 -47 -45 -58 -81 -93 -26 -73 -187 -189 0 0 0 0 0
0 0 0 0 0 0 0 0 -51 -79 -70 -129 -176 -138 -65 -77 -43 -20 -8 -5 -27 -16 0 0 -25 -15 -3 -1 0 -2 -3 -14 -15 -19 -41 -47 -73 -116 -133 -125 -80 -197 0 0 0 0 0 0 0
0 0 0 0 0 0 0 -66 -75 -77 -110 0 0 -40 -78 -77 -47 -22 0 0 -1 0 0 -4 -22 -12 0 0 0 0 -1 0 -1 -20 -48 -62 -108 -178 -190 -203 -146 0 0 0 0 0 0 0 0
0 0 0 0 0 0 0 -43 -96 -108 -117 -38 -66 -91 -115 -105 -46 -55 -2 0 -1 0 -5 -25 -23 -6 0 0 0 0 0 -1 -5 -8 -32 -80 -133 -202 -6 -2 0 0 0 0 0 0 0 0 0
0 0 0 0 0 0 0 -41 -88 -140 -61 -104 0 -121 -71 -10 -26 -14 -1 0 -9 -3 -2 -4 -14 -14 -2 0 0 0 -1 -3 -2 -8 -16 -95 -150 -231 0 0 0 0 0 0 0 0 0 0 0
0 0 0 0 0 0 -46 -96 -121 -58 -65 -105 -60 -98 -43 -4 0 -3 0 -1 -18 -1 0 0 -14 -14 -3 -1 -1 -7 -15 -13 -17 -12 -54 -123 -152 -219 0 0 0 0 0 -32 0 0 0 0 0
0 0 0 0 0 0 -134 -137 -89 -25 -92 -93 -143 -94 -21 0 -4 -3 -16 -2 0 0 0 0 0 -1 -9 -8 -14 -20 -29 -22 -27 -47 -75 -134 -188 -219 -219 -211 -184 -142 -144 -130 -123 -134 -128 -145 -146
0 0 0 0 -67 -172 0 -81 -35 -71 -142 -201 -160 -55 -14 -27 0 0 0 0 0 0 0 0 0 0 0 0 -8 -25 -40 -43 -45 -72 -126 -204 -219 -222 -201 -230 -192 -134 -135 -127 -116 -101 -96 -107 -135
0 0 0 0 -55 -88 -34 -33 0 -221 -127 -190 -203 -103 -78 -14 0 0 -5 -14 -8 -12 -6 -6 -12 -9 -2 0 -5 -40 -43 -65 -71 -109 -156 -219 -154 -148 -136 -190 -172 -128 -145 -126 -98 -96 -85 -97 -137
0 0 0 0 -4 -25 0 0 -83 -105 -117 -240 -165 -84 -38 -48 -34 -42 -52 -57 -42 -26 -39 -32 -30 -37 -13 -12 -17 -30 -59 -87 -91 -101 -89 -99 -102 -98 -107 -125 -194 -173 -170 -128 -146 -134 -122 -110 -43
0 0 0 0 0 -20 -41 0 -192 -79 -71 -152 -115 -138 -111 -70 -82 -93 -100 -92 -68 -48 -72 -83 -67 -66 -10 -21 -35 -66 -83 -91 -97 -86 -92 -61 -68 -43 -45 -62 -73 -73 -196 -135 -98 -109 -78 -83 -36
0 0 0 0 0 0 -120 -12 -115 -94 -85 -162 -122 -130 -109 -96 -129 -124 -118 -107 -105 -79 -72 -57 -52 -66 -87 -93 -76 -89 -69 -71 -54 -46 -46 -40 -35 -53 -106 -102 -79 0 0 0 0 0 0 0 0
0 0 0 0 0 0 0 -130 -94 0 -286 -181 -136 -118 -85 -60 -75 -122 -135 -166 -153 -141 -130 -108 -165 -161 -163 -164 -155 -159 -110 -60 -37 -27 -32 -30 -43 -87 -153 -194 0 0 0 0 0 0 0 0 0
0 0 0 0 0 0 0 0 0 0 -349 -182 -151 -117 -116 -118 -162 -200 -214 -201 -184 -170 -137 -182 -221 -273 -93 -230 -185 -149 -176 -223 -206 -125 -5 -152 -148 -162 -61 0 0 0 0 0 0 0 0 0 0
0 0 0 0 0 0 0 0 0 0 -183 -209 -151 -226 -233 -262 -278 -187 -270 -17 -233 -171 -166 -212 -271 -270 -205 -216 -204 -253 -375 0 0 0 0 0 0 0 0 0 0 0 0 0 0 0 0 0 0
0 0 0 0 0 0 0 0 0 0 -314 -354 -329 -338 -368 0 0 0 0 0 0 -203 -174 -192 -214 -177 -161 -104 0 0 0 0 0 0 0 0 0 0 0 0 0 0 0 0 0 0 0 0 0
0 0 0 0 0 0 0 0 0 0 -201 0 0 0 0 0 0 0 0 0 -196 -200 -200 -176 -142 -161 -20 0 0 0 0 0 0 0 0 0 0 0 0 0 0 0 0 0 0 0 0 0 0
0 0 0 0 0 0 0 0 0 0 0 0 0 0 0 0 0 0 0 0 -321 -288 -280 -294 -216 -74 0 0 0 0 0 0 0 0 0 0 0 0 0 0 0 0 0 0 0 0 0 0 0
0 0 0 0 0 0 0 0 0 0 0 0 0 0 0 0 0 0 0 0 0 -359 -91 0 0 0 0 0 0 0 0 0 0 0 0 0 0 0 0 0 0 0 0 0 0 0 0 0 0
0 0 0 0 0 0 0 0 0 0 0 0 0 0 0 0 0 0 0 0 -321 -246 0 0 0 0 0 0 0 0 0 0 0 0 0 0 0 0 0 0 0 0 0 0 0 0 0 0 0
0 0 0 0 0 0 0 0 0 0 0 0 0 0 0 0 0 0 0 0 0 0 0 0 0 0 0 0 0 0 0 0 0 0 0 0 0 0 0 0 0 0 0 0 0 0 0 0 0
0 0 0 0 0 -97 0 -4 0 0 0 0 0 0 0 0 0 0 0 0 0 0 0 0 0 0 0 0 0 0 0 0 0 0 0 0 0 0 0 0 0 0 0 0 0 0 0 0 0
0 0 0 0 0 0 0 -5 0 0 0 0 0 0 0 0 0 0 0 0 0 0 0 0 0 0 0 0 0 0 0 0 0 0 0 0 0 0 0 0 0 0 0 0 0 0 0 0 0
0 0 0 0 0 0 0 0 0 0 0 0 0 0 0 0 0 0 0 0 0 0 0 0 0 0 0 0 0 0 0 0 0 0 0 0 0 0 0 0 0 0 0 0 0 0 0 0 0
0 0 -50 -26 0 0 0 0 0 0 0 0 0 0 0 0 0 0 0 0 0 0 0 0 0 0 0 0 0 0 0 0 0 0 0 0 0 0 0 0 0 0 0 0 0 0 0 0 0
0 0 -31 0 0 0 0 0 0 0 0 0 0 0 0 0 0 0 0 0 0 0 0 0 0 0 0 0 0 0 0 0 0 0 0 0 0 0 0 0 0 0 0 0 0 0 0 0 0
0 0 0 0 0 0 0 0 0 0 0 0 0 0 0 0 0 0 0 0 0 0 0 0 0 0 0 0 0 0 0 0 0 0 0 0 0 0 0 0 0 0 0 0 0 0 -9 -11 -7
0 0 0 0 0 0 0 0 0 0 0 0 0 0 0 0 0 0 0 0 0 0 0 0 0 0 0 0 0 0 0 0 0 0 0 0 0 0 0 0 0 0 -11 0 0 -4 -11 -18 -6
0 0 0 0 0 0 0 0 0 0 0 0 0 0 0 0 0 0 0 0 0 0 0 0 0 0 0 0 0 0 0 0 0 0 0 0 0 0 0 -21 -30 -11 -11 -16 -17 -17 0 0 -5
0 0 0 0 0 0 0 0 0 0 0 0 0 0 0 0 0 0 0 0 0 0 0 0 0 0 0 0 0 0 0 0 0 0 0 0 0 0 0 -1 -11 -14 -13 -18 0 0 0 0 -1
Wind_Speed
4 5 2 2 3 1 0 3 2 7 5 9 7 9 8 10 5 3 5 6 16 14 13 15 14 15 15 15 14 14 14 14 13 12 12 12 11 10 10 10 9 10 12 13 12 13 12 12 13
4 3 2 2 3 2 1 2 9 12 13 9 9 7 9 5 3 2 6 5 17 15 13 14 14 15 15 14 14 14 14 14 12 12 11 11 10 10 10 9 8 10 11 11 11 11 11 12 12
4 1 1 2 2 4 1 6 19 18 13 8 4 4 3 2 1 2 3 12 16 14 13 13 14 14 14 13 13 12 12 11 11 11 11 10 9 10 10 8 8 10 10 10 10 10 10 10 10
2 2 2 3 4 4 4 14 15 14 6 5 12 4 4 3 10 9 12 14 12 11 13 13 12 13 14 13 12 12 11 10 9 9 9 9 9 10 8 8 8 9 9 9 10 9 8 8 8
3 1 2 3 2 2 4 16 10 5 7 6 3 9 5 3 8 15 14 13 12 11 11 13 11 12 13 12 11 11 10 9 8 8 7 8 8 8 7 7 7 7 8 9 9 8 8 7 7
2 0 1 2 2 1 2 9 10 9 8 1 4 6 4 8 13 15 13 12 12 12 12 12 11 10 11 12 10 9 9 9 9 8 7 8 7 6 7 6 6 6 6 7 8 7 6 5 6
2 2 3 2 1 4 3 13 9 9 11 6 7 3 4 7 10 13 14 12 11 11 11 10 11 10 9 9 10 10 9 8 8 7 7 7 6 6 5 6 5 5 6 6 6 6 6 7 8
3 1 4 1 7 6 5 7 9 5 1 7 3 5 6 9 13 12 12 12 11 10 10 10 8 8 8 8 6 8 7 7 7 6 6 6 5 5 4 3 4 5 6 7 8 8 8 9 9
3 1 4 6 7 2 4 11 5 1 10 5 3 4 10 18 16 12 11 9 8 6 8 6 7 7 8 8 7 6 6 6 5 5 5 4 3 3 2 2 3 5 5 6 6 8 9 9 6
2 2 6 1 18 7 3 7 6 4 5 4 6 9 19 17 15 14 12 11 11 10 7 5 6 7 6 4 5 4 4 2 2 3 3 2 1 0 2 3 5 4 5 5 7 7 7 6 4
3 2 5 7 8 15 17 5 2 11 4 4 11 17 17 15 14 14 13 12 12 10 7 8 7 7 5 2 2 2 1 1 1 1 1 2 1 2 1 1 2 3 6 4 4 4 3 5 4
3 5 2 3 7 5 8 10 5 3 1 3 15 20 16 17 16 15 13 11 10 11 10 9 7 6 5 3 3 3 3 4 3 4 4 3 2 2 1 1 3 3 3 4 4 3 4 5 5
4 3 3 4 6 8 7 5 6 2 3 13 15 15 16 13 11 8 7 8 9 10 9 7 6 6 6 6 4 5 6 6 8 7 7 5 3 1 2 3 3 3 3 4 5 4 4 5 5
3 4 4 3 6 5 7 4 3 4 7 13 16 13 9 9 10 7 7 8 10 8 8 8 8 8 9 9 9 6 5 4 4 4 5 6 7 3 3 3 3 4 4 4 3 4 4 4 5
4 6 5 6 3 4 3 5 5 9 3 12 11 8 9 7 7 7 5 6 6 5 7 10 11 11 9 9 10 5 5 8 5 4 5 4 3 3 4 2 3 4 4 4 3 4 3 3 4
3 4 5 1 2 4 2 3 6 13 5 9 10 8 7 5 4 5 5 3 7 7 11 12 11 11 12 9 6 7 5 3 2 1 1 3 4 4 2 4 4 3 3 4 4 4 3 4 5
7 4 3 4 9 3 7 1 9 9 10 8 7 7 6 5 6 8 7 5 3 9 15 15 13 11 10 9 5 8 7 5 3 2 2 6 5 5 4 4 4 3 4 5 4 4 4 4 6
4 5 2 5 5 11 11 5 7 8 8 8 7 7 6 5 6 6 8 8 10 11 13 13 9 9 10 7 7 6 6 4 3 4 4 5 6 6 5 5 4 4 4 4 3 4 4 4 5
5 4 6 3 1 8 6 6 8 6 8 6 5 6 8 7 5 6 8 10 14 12 13 12 12 10 9 8 7 4 4 4 4 5 7 7 7 7 6 4 4 3 4 3 2 1 4 4 6
4 6 5 5 2 6 6 10 6 6 4 2 7 8 9 9 9 8 9 9 10 10 10 10 10 11 9 7 3 2 3 4 5 5 6 6 6 5 4 3 2 1 0 0 3 4 3 3 4
3 6 4 5 7 7 6 4 3 5 6 6 6 6 9 12 14 12 11 10 8 10 10 11 9 7 5 4 4 4 5 4 3 3 3 3 3 2 1 1 2 1 1 1 3 4 5 6 4
4 3 9 13 2 4 2 4 2 3 3 5 6 6 8 11 10 11 11 10 11 8 8 9 8 7 6 5 3 4 3 3 3 2 1 2 5 6 4 2 1 1 2 3 3 4 5 5 5
3 7 10 3 5 4 2 1 3 6 8 9 9 7 8 8 11 13 14 12 10 10 8 8 11 9 8 8 7 6 7 4 3 1 3 5 5 5 5 3 1 2 3 4 4 3 4 3 3
10 6 6 4 2 1 2 3 5 10 15 14 10 8 9 9 8 6 6 8 10 10 9 11 14 13 12 12 11 10 7 5 5 6 6 6 7 7 5 4 3 4 3 3 2 2 3 3 1
5 4 2 1 1 3 1 3 6 13 11 16 17 14 12 8 7 6 6 6 7 11 12 13 14 14 12 12 11 10 8 6 6 7 6 10 8 9 8 5 5 4 4 2 1 2 3 3 2
2 4 5 5 4 2 1 6 3 3 11 15 16 13 11 9 8 6 7 8 10 11 13 13 13 13 11 11 10 9 9 5 4 6 7 7 8 9 9 5 6 5 1 2 2 5 4 3 4
3 2 2 7 2 1 2 3 6 1 8 11 13 14 14 11 9 9 8 8 9 10 11 12 13 12 11 9 7 7 5 5 5 7 8 8 10 8 5 7 7 2 2 4 5 5 5 5 5
1 6 3 2 4 3 2 5 6 5 12 12 14 15 13 9 10 9 8 8 7 10 9 9 10 11 9 8 5 4 4 4 7 8 10 12 11 8 5 7 5 5 5 5 6 5 5 6 5
3 3 6 5 1 3 2 4 4 8 13 16 16 13 13 13 12 10 8 7 9 9 9 9 7 7 7 5 4 4 4 6 6 8 10 11 11 9 6 7 7 5 5 7 6 6 7 7 7
1 3 4 4 4 2 0 5 0 6 7 9 10 10 12 14 13 11 10 10 9 9 8 7 6 5 4 2 2 2 4 5 7 8 10 10 10 9 7 5 6 7 9 8 6 6 7 7 7
Wind_Direction
157 157 171 114 218 288 176 187 128 120 77 68 64 74 69 38 6 5 153 159 131 144 151 154 140 132 131 132 125 117 116 116 116 109 100 94 92 91 90 82 75 76 71 66 62 58 54 48 42
136 135 70 97 231 194 250 312 101 117 127 94 59 49 56 72 55 55 168 171 139 139 152 154 144 135 136 132 127 126 127 128 124 112 109 108 106 99 91 88 80 76 73 70 64 60 55 50 43
158 83 210 175 123 176 168 157 126 118 136 142 84 315 133 100 40 194 214 150 141 144 155 150 144 140 137 136 135 132 131 130 122 124 121 117 114 103 99 97 88 82 75 67 63 57 55 50 45
145 114 94 247 208 232 155 156 133 121 65 110 163 170 110 99 158 180 139 143 142 143 151 145 145 138 141 141 140 131 133 126 123 119 124 121 105 95 95 88 83 75 69 65 64 63 60 55 46
58 86 182 244 248 259 231 168 190 125 81 266 127 147 107 65 132 134 139 150 137 135 146 152 141 147 145 144 140 135 128 121 122 123 124 112 100 100 99 90 81 83 81 76 72 62 62 54 41
120 96 175 235 307 197 154 164 100 112 186 139 82 103 77 129 141 144 145 140 144 142 145 155 148 150 139 139 136 131 135 139 135 130 127 108 98 94 83 79 75 65 69 73 76 67 58 55 45
122 134 206 145 320 61 73 109 73 207 158 164 118 65 95 128 133 144 144 139 147 144 152 154 159 154 131 133 146 152 152 141 141 139 125 112 111 100 92 70 61 48 36 33 48 44 29 20 14
113 167 163 148 80 22 42 68 188 252 105 116 101 155 146 162 142 144 141 149 143 148 152 160 158 156 153 159 147 159 157 147 147 144 129 125 122 117 98 74 39 26 20 5 6 4 4 4 5
123 163 168 148 74 191 27 184 172 356 126 67 37 153 140 147 141 135 139 140 144 151 154 148 160 170 169 170 166 167 157 154 171 161 143 131 120 108 100 11 348 352 347 342 349 343 336 341 332
150 174 212 175 123 158 141 279 146 127 128 102 105 105 130 140 148 158 163 167 173 168 159 160 174 173 171 171 164 174 159 172 194 174 165 162 146 104 335 326 340 321 329 331 340 334 317 307 330
169 220 190 160 165 175 180 146 100 150 210 183 149 142 143 148 160 170 177 182 174 174 184 192 184 175 162 151 108 70 20 316 318 293 280 300 312 304 306 293 322 354 7 359 357 357 344 341 338
213 238 207 306 105 142 151 133 106 144 309 179 154 151 151 166 172 179 186 180 180 188 197 190 171 141 122 80 66 40 7 351 329 346 335 314 297 292 333 8 32 36 15 353 10 1 346 351 7
209 198 163 5 118 116 133 122 129 63 69 120 139 161 163 168 175 182 184 193 193 193 191 171 131 120 111 88 86 62 39 15 350 343 344 325 290 323 2 34 47 33 16 7 10 5 7 12 24
172 110 118 87 127 121 122 104 109 13 138 129 156 165 152 163 173 190 193 197 205 193 184 123 118 117 106 97 92 79 53 15 354 342 4 353 327 354 65 60 36 25 10 16 6 19 21 24 16
123 90 74 32 68 83 87 50 33 338 192 136 139 146 154 159 171 209 243 226 217 209 140 123 116 116 111 112 111 94 47 26 23 28 12 75 52 45 56 46 54 34 27 28 53 52 48 43 22
94 62 108 74 116 29 180 162 11 352 143 119 135 141 139 99 82 45 12 294 174 160 133 133 125 127 112 96 63 65 62 70 67 76 155 103 58 46 59 56 60 59 56 51 51 27 26 25 4
26 129 130 102 18 121 37 103 349 352 111 92 101 111 121 96 65 42 31 51 81 131 131 132 134 125 118 112 83 103 114 113 155 84 70 45 54 67 81 71 65 70 61 49 33 36 9 13 353
159 129 115 112 9 56 76 56 0 29 106 109 115 116 109 84 36 49 69 78 93 102 116 119 116 122 117 106 117 129 122 135 115 82 76 72 68 64 73 68 58 55 67 60 48 32 34 20 351
123 104 102 47 54 75 69 72 25 41 78 104 124 133 122 102 77 74 98 110 107 107 113 120 134 141 133 133 144 148 159 128 108 80 62 56 51 50 55 63 50 44 49 67 62 36 1 358 358
97 130 103 94 84 92 113 64 50 46 61 129 145 141 133 118 112 111 106 115 117 129 123 133 136 142 142 153 139 93 137 98 90 76 64 57 61 60 67 58 40 19 348 42 35 10 350 354 22
79 112 159 134 111 84 130 79 39 54 89 114 112 111 116 125 124 124 122 118 114 117 127 129 139 138 125 107 108 98 97 115 123 84 81 93 140 141 131 289 311 310 316 75 46 16 2 350 19
89 104 133 132 115 148 310 190 202 151 135 147 141 136 139 142 131 121 118 118 127 120 112 116 109 87 64 39 72 78 62 89 67 99 148 3 354 347 327 316 301 7 67 82 74 49 32 4 348
115 124 124 113 107 153 138 194 126 172 202 194 187 167 153 145 136 143 155 145 123 115 97 93 82 77 75 75 72 71 72 81 110 163 340 348 342 314 292 296 345 120 125 115 86 65 35 30 360
144 93 59 61 81 242 158 227 183 194 203 189 188 184 173 170 150 134 113 124 119 106 110 101 91 77 70 68 63 66 70 60 27 5 342 333 326 326 314 266 198 164 136 97 95 127 146 139 134
76 95 92 182 196 231 327 205 262 211 189 183 184 185 181 176 153 158 135 117 109 106 106 94 91 83 76 72 66 64 62 43 12 354 335 326 322 318 314 240 185 150 125 172 267 249 227 209 242
102 164 163 197 198 204 132 232 227 243 199 183 185 177 169 173 164 148 121 111 107 106 103 103 95 90 85 84 76 66 53 39 12 351 334 320 314 308 307 231 161 143 47 23 325 266 266 261 264
156 140 112 106 24 238 236 271 262 95 171 172 161 167 179 174 162 146 127 119 121 118 113 109 107 103 93 88 83 70 54 34 3 343 338 332 321 312 287 181 174 158 149 242 260 292 288 278 277
114 134 121 43 153 254 259 271 249 203 190 183 180 184 177 164 153 142 137 134 125 113 109 103 105 107 108 99 92 84 56 18 4 354 341 330 324 315 241 196 200 176 298 273 294 288 282 276 275
144 124 65 100 54 174 293 257 216 232 200 197 197 185 172 164 157 149 144 136 131 129 130 122 119 111 100 94 83 54 30 10 350 340 336 332 323 315 263 219 222 287 273 271 263 259 268 263 275
111 135 136 125 182 66 297 273 211 272 237 205 187 171 169 164 156 154 151 150 150 148 152 130 112 110 99 109 68 16 6 345 334 330 330 329 320 315 306 291 286 289 283 272 253 262 262 272 281